• In Hungary
  • List of Countries
  • For 7 days
  • Water Temperature
  • Satellite Maps
  • Weather Map
  • News
  • Weather Widgets
  • user-avatar
    Login

    Hourly Weather Nazaret

    Today, 18 November, Saturday

    Time Temperature Precipitation Wind Pressure Humidity
    00:00 +21°C° 0 mm 2 mps 728 mmHg 26%
    01:00 +20°C° 0 mm 2 mps 728 mmHg 26%
    02:00 +20°C° 0 mm 2 mps 728 mmHg 29%
    03:00 +20°C° 0 mm 2 mps 728 mmHg 29%
    04:00 +20°C° 0 mm 3 mps 728 mmHg 29%
    05:00 +19°C° 0 mm 3 mps 728 mmHg 30%
    06:00 +20°C° 0 mm 3 mps 728 mmHg 28%
    07:00 +21°C° 0 mm 3 mps 728 mmHg 26%
    08:00 +22°C° 0 mm 3 mps 728 mmHg 24%
    09:00 +24°C° 0 mm 3 mps 728 mmHg 22%
    10:00 +26°C° 0 mm 3 mps 728 mmHg 20%
    11:00 +27°C° 0 mm 3 mps 728 mmHg 18%
    12:00 +28°C° 0 mm 3 mps 728 mmHg 17%
    13:00 +28°C° 0 mm 2 mps 728 mmHg 17%
    14:00 +28°C° 0 mm 2 mps 728 mmHg 17%
    15:00 +27°C° 0 mm 2 mps 727 mmHg 19%
    16:00 +26°C° 0 mm 1 mps 727 mmHg 21%
    17:00 +25°C° 0 mm 1 mps 727 mmHg 24%
    18:00 +24°C° 0 mm 1 mps 727 mmHg 25%
    19:00 +24°C° 0 mm 1 mps 727 mmHg 26%
    20:00 +23°C° 0 mm 1 mps 727 mmHg 27%
    21:00 +23°C° 0 mm 1 mps 727 mmHg 28%
    22:00 +22°C° 0 mm 1 mps 727 mmHg 29%
    23:00 +22°C° 0 mm 1 mps 727 mmHg 31%

    Tomorrow, 19 November, Sunday

    Time Temperature Precipitation Wind Pressure Humidity
    00:00 +21°C° 0 mm 1 mps 727 mmHg 32%
    01:00 +21°C° 0 mm 1 mps 727 mmHg 34%
    02:00 +20°C° 0 mm 1 mps 727 mmHg 36%
    03:00 +20°C° 0 mm 1 mps 727 mmHg 39%
    04:00 +19°C° 0 mm 1 mps 727 mmHg 42%
    05:00 +18°C° 0 mm 2 mps 727 mmHg 45%
    06:00 +19°C° 0 mm 2 mps 728 mmHg 46%
    07:00 +20°C° 0 mm 2 mps 728 mmHg 47%
    08:00 +21°C° 0 mm 2 mps 728 mmHg 48%
    09:00 +23°C° 0 mm 2 mps 729 mmHg 48%
    10:00 +24°C° 0 mm 3 mps 729 mmHg 47%
    11:00 +25°C° 0 mm 3 mps 729 mmHg 47%
    12:00 +25°C° 0 mm 4 mps 729 mmHg 48%
    13:00 +25°C° 0 mm 4 mps 729 mmHg 48%
    14:00 +25°C° 0 mm 4 mps 728 mmHg 49%
    15:00 +23°C° 0 mm 4 mps 729 mmHg 55%
    16:00 +22°C° 0 mm 4 mps 729 mmHg 61%
    17:00 +20°C° 0 mm 3 mps 729 mmHg 67%
    18:00 +20°C° 0 mm 3 mps 729 mmHg 69%
    19:00 +19°C° 0 mm 3 mps 729 mmHg 71%
    20:00 +19°C° 0 mm 2 mps 730 mmHg 73%
    21:00 +19°C° 0 mm 2 mps 730 mmHg 74%
    22:00 +18°C° 0 mm 2 mps 730 mmHg 75%
    23:00 +18°C° 0 mm 2 mps 729 mmHg 75%

    Day after tomorrow, 20 November, Monday

    Time Temperature Precipitation Wind Pressure Humidity
    00:00 +18°C° 0 mm 2 mps 729 mmHg 76%
    01:00 +17°C° 0 mm 2 mps 729 mmHg 76%
    02:00 +17°C° 0 mm 2 mps 729 mmHg 77%
    03:00 +18°C° 0 mm 1 mps 729 mmHg 77%
    04:00 +16°C° 0 mm 1 mps 729 mmHg 77%
    05:00 +16°C° 0 mm 1 mps 729 mmHg 77%
    06:00 +18°C° 0 mm 1 mps 729 mmHg 73%
    07:00 +18°C° 0 mm 1 mps 729 mmHg 69%
    08:00 +19°C° 0 mm 1 mps 730 mmHg 65%
    09:00 +19°C° 0 mm 2 mps 730 mmHg 60%
    10:00 +20°C° 0 mm 2 mps 730 mmHg 55%
    11:00 +20°C° 0 mm 3 mps 729 mmHg 50%
    12:00 +21°C° 0 mm 4 mps 729 mmHg 50%
    13:00 +21°C° 0 mm 4 mps 729 mmHg 49%
    14:00 +21°C° 0 mm 4 mps 728 mmHg 49%
    15:00 +20°C° 0.2 mm 4 mps 728 mmHg 52%
    16:00 +20°C° 0.2 mm 4 mps 728 mmHg 56%
    17:00 +19°C° 0.2 mm 4 mps 728 mmHg 60%
    18:00 +18°C° 0.6 mm 3 mps 728 mmHg 64%
    19:00 +18°C° 0.6 mm 3 mps 728 mmHg 69%
    20:00 +17°C° 0.6 mm 3 mps 728 mmHg 73%
    21:00 +17°C° 0.5 mm 3 mps 728 mmHg 74%
    22:00 +17°C° 0.5 mm 3 mps 728 mmHg 76%
    23:00 +16°C° 0.5 mm 3 mps 728 mmHg 77%

    21 November, Tuesday

    Time Temperature Precipitation Wind Pressure Humidity
    00:00 +16°C° 0.4 mm 3 mps 728 mmHg 77%
    01:00 +15°C° 0.4 mm 4 mps 727 mmHg 77%
    02:00 +15°C° 0.4 mm 4 mps 727 mmHg 76%
    03:00 +15°C° 0.6 mm 4 mps 727 mmHg 77%
    04:00 +15°C° 0.6 mm 5 mps 727 mmHg 77%
    05:00 +15°C° 0.6 mm 5 mps 727 mmHg 78%
    06:00 +15°C° 0.9 mm 5 mps 727 mmHg 76%
    07:00 +16°C° 0.9 mm 6 mps 727 mmHg 75%
    08:00 +16°C° 0.9 mm 6 mps 728 mmHg 73%
    09:00 +16°C° 0.5 mm 7 mps 727 mmHg 70%
    10:00 +17°C° 0.5 mm 7 mps 727 mmHg 68%
    11:00 +17°C° 0.5 mm 8 mps 727 mmHg 65%
    12:00 +17°C° 0.2 mm 8 mps 727 mmHg 62%
    13:00 +17°C° 0.2 mm 8 mps 727 mmHg 60%
    14:00 +16°C° 0.2 mm 8 mps 727 mmHg 57%
    15:00 +16°C° 0 mm 8 mps 727 mmHg 59%
    16:00 +15°C° 0 mm 7 mps 727 mmHg 60%
    17:00 +15°C° 0 mm 6 mps 727 mmHg 62%
    18:00 +14°C° 0.1 mm 6 mps 728 mmHg 63%
    19:00 +14°C° 0.1 mm 6 mps 728 mmHg 65%
    20:00 +14°C° 0.1 mm 5 mps 728 mmHg 66%
    21:00 +14°C° 0.1 mm 5 mps 729 mmHg 66%
    22:00 +14°C° 0.1 mm 5 mps 729 mmHg 66%
    23:00 +14°C° 0.1 mm 5 mps 729 mmHg 66%

    22 November, Wednesday

    Time Temperature Precipitation Wind Pressure Humidity
    00:00 +14°C° 0.1 mm 4 mps 729 mmHg 67%
    01:00 +14°C° 0.1 mm 4 mps 729 mmHg 67%
    02:00 +13°C° 0.1 mm 4 mps 729 mmHg 67%
    03:00 +13°C° 0.1 mm 4 mps 729 mmHg 67%
    04:00 +13°C° 0.1 mm 3 mps 729 mmHg 68%
    05:00 +13°C° 0.1 mm 3 mps 729 mmHg 68%
    06:00 +13°C° 0.1 mm 3 mps 729 mmHg 67%
    07:00 +14°C° 0.1 mm 3 mps 729 mmHg 67%
    08:00 +14°C° 0.1 mm 3 mps 730 mmHg 66%
    09:00 +14°C° 0.3 mm 3 mps 730 mmHg 65%
    10:00 +16°C° 0.3 mm 3 mps 730 mmHg 64%
    11:00 +16°C° 0.3 mm 3 mps 730 mmHg 63%
    12:00 +16°C° 0.2 mm 3 mps 730 mmHg 63%
    13:00 +16°C° 0.2 mm 3 mps 729 mmHg 64%
    14:00 +16°C° 0.2 mm 3 mps 729 mmHg 64%
    15:00 +16°C° 0.2 mm 3 mps 729 mmHg 65%
    16:00 +15°C° 0.2 mm 2 mps 729 mmHg 67%
    17:00 +15°C° 0.2 mm 2 mps 730 mmHg 68%
    18:00 +15°C° 0.1 mm 2 mps 730 mmHg 68%
    19:00 +15°C° 0.1 mm 2 mps 730 mmHg 69%
    20:00 +14°C° 0.1 mm 2 mps 731 mmHg 69%
    21:00 +14°C° 0 mm 2 mps 731 mmHg 69%
    22:00 +14°C° 0 mm 2 mps 731 mmHg 70%
    23:00 +14°C° 0 mm 2 mps 731 mmHg 70%

    23 November, Thursday

    Time Temperature Precipitation Wind Pressure Humidity
    00:00 +14°C° 0 mm 2 mps 731 mmHg 71%
    01:00 +13°C° 0 mm 2 mps 730 mmHg 71%
    02:00 +13°C° 0 mm 1 mps 730 mmHg 72%
    03:00 +13°C° 0 mm 1 mps 730 mmHg 73%
    04:00 +13°C° 0 mm 1 mps 730 mmHg 74%
    05:00 +12°C° 0 mm 1 mps 730 mmHg 75%
    06:00 +13°C° 0 mm 1 mps 731 mmHg 72%
    07:00 +14°C° 0 mm 1 mps 731 mmHg 70%
    08:00 +14°C° 0 mm 2 mps 731 mmHg 67%
    09:00 +15°C° 0 mm 2 mps 731 mmHg 62%
    10:00 +16°C° 0 mm 1 mps 731 mmHg 56%
    11:00 +18°C° 0 mm 1 mps 731 mmHg 51%
    12:00 +18°C° 0 mm 2 mps 731 mmHg 49%
    13:00 +18°C° 0 mm 3 mps 731 mmHg 47%
    14:00 +18°C° 0 mm 3 mps 730 mmHg 46%
    15:00 +18°C° 0 mm 3 mps 731 mmHg 48%
    16:00 +17°C° 0 mm 3 mps 731 mmHg 50%
    17:00 +16°C° 0 mm 3 mps 731 mmHg 53%
    18:00 +16°C° 0 mm 3 mps 731 mmHg 54%
    19:00 +14°C° 0 mm 3 mps 731 mmHg 55%
    20:00 +15°C° 0 mm 2 mps 731 mmHg 57%
    21:00 +14°C° 0 mm 2 mps 731 mmHg 58%
    22:00 +14°C° 0 mm 2 mps 731 mmHg 60%
    23:00 +14°C° 0 mm 2 mps 731 mmHg 61%
    Show more